Tracking 29892 objects as of 21-Nov-2024
HD Live streaming from Space Station
objects crossing your sky now

COSMOS 1275 DEB

Track COSMOS 1275 DEB now!
10-day predictions


NORAD ID: 17624
Int'l Code: 1981-053KW
Perigee: 758.9 km
Apogee: 772.1 km
Inclination: 82.8 °
Period: 100.0 minutes
Semi major axis: 7136 km
RCS: 0.0093 m2 (small)
Launch date: June 4, 1981
Source: Commonwealth of Independent States (former USSR) (CIS)
Launch site: PLESETSK MISSILE AND SPACE COMPLEX (PKMTR)

Note: This is SATELLITE DEBRIS
Your satellite tracking list
Your tracking list is empty




NASA's NSSDC Master Catalog

Two Line Element Set (TLE):
1 17624U 81053KT  24325.61789939  .00008776  00000-0  27769-2 0  9996
2 17624  82.8466 199.5460 0009247 154.9300 235.9039 14.40034867 41467
Source of the keplerian elements: AFSPC